Regional Weather Roundup
Issued by NWS Sioux Falls, SD

Home | Current Version | Previous Version | Graphics & Text | Print | Product List | Glossary On
Versions: 1 2 3 4 5 6 7 8 9 10 11 12 13 14 15 16 17 18 19 20 21 22 23 24 25 26 27 28 29 30 31 32 33 34 35 36 37 38 39 40 41 42 43 44 45 46 47 48 49 50
000
ASUS43 KFSD 031010
RWRFSD

WEATHER ROUNDUP FOR SE SOUTH DAKOTA/SW MINNESOTA/NW IOWA
NATIONAL WEATHER SERVICE SIOUX FALLS SD
500 AM CDT SUN MAY 03 2015

NOTE: "FAIR" INDICATES FEW OR NO CLOUDS BELOW 12,000 FEET WITH NO
SIGNIFICANT WEATHER AND OR OBSTRUCTIONS TO VISIBILITY.


SDZ038>040-050-052>070-031100-
SOUTHEAST SOUTH DAKOTA

CITY           SKY/WX    TMP DP  RH WIND       PRES   REMARKS
BROOKINGS      MOCLDY    57  54  88 SE3       29.72R
CHAMBERLAIN    PTCLDY    55  48  77 CALM      29.68S
HURON          PTCLDY    59  54  83 S12       29.66S
MADISON        FAIR      57  57 100 S9        29.71F
MITCHELL       PTCLDY    58  54  86 SE10      29.69R
SIOUX FALLS    CLOUDY    59  53  80 CALM      29.70R
WINNER         FAIR      57  39  51 SW6       29.68F
YANKTON        PTCLDY    66  50  55 S20G25    29.66S
$$

MNZ071-072-080-081-089-090-097-098-031100-
SOUTHWEST MINNESOTA

CITY           SKY/WX    TMP DP  RH WIND       PRES   REMARKS
FAIRMONT       CLOUDY    55  46  71 S9        29.74S
JACKSON        CLOUDY    54  50  87 SE6       29.74S
LUVERNE        CLOUDY    57  52  82 CALM      29.72R
MARSHALL       MOCLDY    57  48  72 S7        29.70S
MONTEVIDEO     MOCLDY    57  52  82 S8        29.72S
REDWOOD FALLS  CLOUDY    55  51  86 SE10      29.71F
TRACY          MOCLDY    58  52  81 SE6       29.72S
WINDOM         CLOUDY    55  52  88 CALM      29.73S
WORTHINGTON    CLOUDY    55  48  76 NE5       29.73R
$$

IAZ001>003-012>014-020>022-031-032-NEZ013-014-SDZ071-031100-
NORTHWEST IOWA

CITY           SKY/WX    TMP DP  RH WIND       PRES   REMARKS
CHEROKEE       CLOUDY    51  51  99 CALM      29.72S
DENISON        CLOUDY    63  55  77 S21G31    29.69F
ESTHERVILLE    CLOUDY    53  50  89 S9        29.74S
LE MARS        CLOUDY    59  52  77 S6        29.71F
ORANGE CITY    CLOUDY    57  52  82 S9        29.70F
SHELDON        CLOUDY    55  55 100 SE8       29.69F
SIOUX CITY     PTCLDY    59  49  69 S10       29.71R
SPENCER        CLOUDY    53  51  93 SE7       29.73S
STORM LAKE     CLOUDY    54  52  94 CALM      29.74S
$$

ABBREVIATIONS USED IN REMARKS
   TC - TEMPERATURE IN CELSIUS
  WCI - WIND CHILL INDEX
   HX - HEAT INDEX
  VSB - VISIBILITY




USA.gov is the U.S. government's official web portal to all federal, state and local government web resources and services.